Weather History for Jaipur, India

Change the Weather History Date:

Saturday, October 13, 2012

  Actual Average Record
Temperature  
Mean Temperature 82 °F -  
Max Temperature 95 °F - - ()
Min Temperature 68 °F - - ()
Cooling Degree Days 16    
Growing Degree Days 32 (Base 50)    
Moisture  
Dew Point 55 °F    
Average Humidity 41    
Maximum Humidity 64    
Minimum Humidity 15    
Precipitation  
Precipitation 0.00 in - - ()
Sea Level Pressure  
Sea Level Pressure 29.88 in    
Wind  
Wind Speed 1 mph ()    
Max Wind Speed 7 mph    
Max Gust Speed -    
Visibility 1.8 miles    
Events      
T = Trace of Precipitation, MM = Missing Value Source: Averaged Metar Reports

Daily Weather History Graph

Daily Weather History Graph

Search for Another Location

Airport:

Trip Planner

Search our weather history database for the weather conditions in past years. The results will help you decide how hot, cold, wet, or windy it might be!

Date:

Astronomy

Oct. 13, 2012 Rise Set
Actual Time 6:25 AM IST 6:00 PM IST
Civil Twilight 6:01 AM IST 6:23 PM IST
Nautical Twilight 5:34 AM IST 6:50 PM IST
Astronomical Twilight 5:07 AM IST 7:17 PM IST
Moon 3:55 AM IST (10/13) 4:19 PM IST (10/13)
Length of Visible Light 12h 21m
Length of Day
11h 35m
Waning Crescent, 7% of the Moon is Illuminated
Oct 13
Waning Crescent
Oct 15
New
Oct 22
First Quarter
Oct 30
Full
Nov 7
Last Quarter

Hourly Weather History & Observations

Time (IST) Temp. Heat Index Dew Point Humidity Pressure Visibility Wind Dir Wind Speed Gust Speed Precip Events Conditions
12:00 AM 75.2 °F - 57.2 °F 53% 29.89 in 1.6 mi Calm Calm - N/A   Haze
1:00 AM 73.4 °F - 57.2 °F 57% 29.89 in 1.6 mi Calm Calm - N/A   Haze
2:00 AM 73.4 °F - 57.2 °F 57% 29.86 in 1.6 mi Calm Calm - N/A   Haze
2:30 AM 78 °F - 54 °F 33% 29.80 in 1 mi Calm Calm - -   Haze
2:30 AM 77.0 °F - 57.2 °F 50% 29.86 in 1.6 mi Calm Calm - N/A   Haze
3:00 AM 78.8 °F - 57.2 °F 47% 29.86 in 1.6 mi Calm Calm - N/A   Haze
4:00 AM 78.8 °F - 57.2 °F 47% 29.86 in 1.6 mi Calm Calm - N/A   Haze
5:00 AM 69.8 °F - 57.2 °F 64% 29.86 in 1.6 mi Calm Calm - N/A   Haze
5:30 AM 72 °F - 56 °F 47% 29.81 in 1 mi Calm Calm - -   Haze
6:00 AM 69.8 °F - 55.4 °F 60% 29.89 in 1.6 mi Calm Calm - N/A   Haze
7:00 AM 68.0 °F - 55.4 °F 64% 29.89 in 1.6 mi Calm Calm - N/A   Haze
8:00 AM 75.2 °F - 55.4 °F 50% 29.92 in 1.6 mi Calm Calm - N/A   Haze
8:30 AM 81 °F - 57 °F 34% 29.83 in 1 mi Calm Calm - -   Haze
9:00 AM 82.4 °F 82.0 °F 57.2 °F 42% 29.92 in 1.6 mi Calm Calm - N/A   Haze
10:00 AM 84.2 °F 83.0 °F 55.4 °F 37% 29.92 in 1.9 mi Calm Calm - N/A   Haze
11:00 AM 91.4 °F 89.4 °F 55.4 °F 29% 29.95 in 1.9 mi WNW 3.5 mph - N/A   Haze
11:30 AM 95 °F - 53 °F 15% 29.83 in 1 mi Calm Calm - -   Haze
12:00 PM 91.4 °F - 51.8 °F 26% 29.92 in 1.9 mi WNW 4.6 mph - N/A   Haze
1:00 PM 93.2 °F - 50.0 °F 23% 29.89 in 2.5 mi WNW 6.9 mph - N/A   Haze
2:30 PM 95.0 °F - 50.0 °F 22% 29.86 in 2.5 mi Variable 2.3 mph - N/A   Haze
3:00 PM 93.2 °F - 50.0 °F 23% 29.86 in 2.5 mi Variable 4.6 mph - N/A   Haze
3:30 PM 93.2 °F - 50.0 °F 23% 29.86 in 2.5 mi Variable 1.2 mph - N/A   Haze
4:00 PM 93.2 °F - 50.0 °F 23% 29.86 in 2.5 mi NW 4.6 mph - N/A   Haze
4:30 PM 93.2 °F - 50.0 °F 23% 29.86 in 2.5 mi Variable 2.3 mph - N/A   Haze
5:00 PM 91.4 °F - 51.8 °F 26% 29.86 in 2.5 mi Variable 2.3 mph - N/A   Haze
5:30 PM 91.4 °F - 51.8 °F 26% 29.86 in 2.5 mi Calm Calm - N/A   Haze
6:00 PM 87.8 °F - 51.8 °F 29% 29.89 in 2.2 mi Calm Calm - N/A   Haze
7:00 PM 82.4 °F - 51.8 °F 35% 29.89 in 1.6 mi Calm Calm - N/A   Haze
7:30 PM 80.6 °F 81.1 °F 59.0 °F 48% 29.89 in 1.6 mi Calm Calm - N/A   Haze
8:00 PM 78.8 °F - 59.0 °F 51% 29.92 in 1.6 mi Calm Calm - N/A   Haze
8:30 PM 80 °F - 60 °F 41% 29.84 in 1 mi Calm Calm - -   Haze
9:00 PM 80.6 °F 81.5 °F 60.8 °F 51% 29.92 in 1.6 mi Variable 3.5 mph - N/A   Haze
9:30 PM 82.4 °F 82.9 °F 60.8 °F 48% 29.95 in 1.6 mi Variable 1.2 mph - N/A   Haze
10:30 PM 80.6 °F 81.5 °F 60.8 °F 51% 29.95 in 1.6 mi Calm Calm - N/A   Haze
11:00 PM 77.0 °F - 60.8 °F 57% 29.95 in 1.6 mi Calm Calm - N/A   Haze
11:30 PM 77 °F - 56 °F 37% 29.87 in 2 mi Calm Calm - -   Haze
11:30 PM 75.2 °F - 57.2 °F 53% 29.95 in 1.6 mi Calm Calm - N/A   Haze